KB9MLJ Weather Reports


time (UTC)temp
C
wind
direction
speed
KPH
gust
KPH
rain 1hr
cm
rain 24hr
cm
rain mn
cm
humidity
%
barometer
mb
20260509112506 10 228 9.7 11.3 0.00 0.00 0.00 99 1005.4
20260509112002 10 223 6.4 9.7 0.00 0.00 0.00 99 1005.0
20260509111500 10 180 8.0 11.3 0.00 0.00 0.00 99 1005.0
20260509110957 10 185 4.8 8.0 0.00 0.00 0.00 99 1005.0
20260509110453 10 219 3.2 3.2 0.00 0.00 0.00 99 1005.0
20260509105951 10 195 4.8 8.0 0.00 0.00 0.00 99 1004.7
20260509105449 10 229 0.0 1.6 0.00 0.00 0.00 99 1005.0
20260509104946 10 170 8.0 11.3 0.00 0.00 0.00 99 1005.0
20260509104443 10 180 6.4 9.7 0.00 0.00 0.00 99 1005.0
20260509103940 10 180 8.0 8.0 0.00 0.00 0.00 99 1005.0
20260509103438 9 198 3.2 3.2 0.00 0.00 0.00 99 1005.0
20260509102936 9 180 1.6 1.6 0.00 0.00 0.00 99 1005.0
20260509102433 9 181 6.4 8.0 0.00 0.00 0.00 99 1005.0
20260509101928 9 205 4.8 4.8 0.00 0.00 0.00 99 1005.0
20260509101425 9 202 3.2 3.2 0.00 0.00 0.00 99 1005.4
20260509100923 9 202 4.8 8.0 0.00 0.00 0.00 99 1005.0
20260509100420 10 181 4.8 4.8 0.00 0.00 0.00 99 1005.4
20260509095916 10 206 3.2 3.2 0.00 0.00 0.00 99 1005.4
20260509095414 10 204 4.8 4.8 0.00 0.00 0.00 99 1005.4
20260509094910 10 207 1.6 1.6 0.00 0.00 0.00 99 1005.7
20260509094407 10 184 3.2 3.2 0.00 0.00 0.00 99 1005.7
20260509093905 10 214 3.2 3.2 0.00 0.00 0.00 99 1005.4
20260509093402 10 187 4.8 4.8 0.00 0.00 0.00 99 1005.4
20260509092900 10 196 3.2 3.2 0.00 0.00 0.00 99 1005.4
20260509092357 10 199 3.2 3.2 0.00 0.00 0.00 99 1005.4
20260509091856 10 179 6.4 9.7 0.00 0.00 0.00 99 1005.4
20260509091352 10 195 1.6 1.6 0.00 0.00 0.00 99 1005.4
20260509090850 10 192 6.4 8.0 0.00 0.00 0.00 99 1005.4
20260509090347 10 188 1.6 3.2 0.00 0.00 0.00 99 1005.4
20260509085844 10 189 1.6 3.2 0.00 0.00 0.00 99 1005.7
20260509085341 10 189 0.0 0.0 0.00 0.00 0.00 99 1005.7
20260509084838 10 188 3.2 4.8 0.00 0.00 0.00 99 1005.4
20260509084335 10 193 6.4 9.7 0.00 0.00 0.00 99 1005.4
20260509083832 10 204 4.8 4.8 0.00 0.00 0.00 99 1005.4
20260509083329 9 169 4.8 4.8 0.00 0.00 0.00 99 1005.4
20260509082826 9 190 4.8 4.8 0.00 0.00 0.00 99 1005.4
20260509082322 9 174 4.8 4.8 0.00 0.00 0.00 99 1005.4
20260509081820 9 177 4.8 8.0 0.00 0.00 0.00 98 1005.7
20260509081316 9 193 4.8 4.8 0.00 0.00 0.00 98 1005.7
20260509080815 10 173 4.8 4.8 0.00 0.00 0.00 98 1005.7
20260509080312 10 211 3.2 3.2 0.00 0.00 0.00 98 1005.7
20260509075810 10 221 3.2 3.2 0.00 0.00 0.00 98 1005.7
20260509075307 10 225 3.2 3.2 0.00 0.00 0.00 98 1005.7
20260509074804 10 222 1.6 1.6 0.00 0.00 0.00 98 1005.7
20260509074302 10 230 3.2 3.2 0.00 0.00 0.00 98 1005.7
20260509073758 10 229 1.6 1.6 0.00 0.00 0.00 98 1005.7
20260509073254 10 228 1.6 1.6 0.00 0.00 0.00 98 1005.4
20260509072751 10 228 1.6 3.2 0.00 0.00 0.00 98 1005.4
20260509072248 10 229 1.6 1.6 0.00 0.00 0.00 97 1005.7
20260509071744 10 228 4.8 4.8 0.00 0.00 0.00 97 1005.7
20260509071242 10 199 1.6 1.6 0.00 0.00 0.00 97 1005.4
20260509070738 10 193 4.8 8.0 0.00 0.00 0.00 97 1005.7
20260509070235 10 197 1.6 1.6 0.00 0.00 0.00 97 1005.7
20260509065731 10 193 1.6 1.6 0.00 0.00 0.00 97 1005.7
20260509065227 10 194 3.2 4.8 0.00 0.00 0.00 97 1005.7
20260509064724 10 177 1.6 1.6 0.00 0.00 0.00 96 1006.0
20260509064222 10 177 3.2 3.2 0.00 0.00 0.00 96 1005.7
20260509063719 10 200 1.6 1.6 0.00 0.00 0.00 96 1005.7
20260509063215 10 203 3.2 4.8 0.00 0.00 0.00 96 1006.0
20260509062713 10 213 3.2 3.2 0.00 0.00 0.00 96 1006.0
20260509062210 10 216 1.6 1.6 0.00 0.00 0.00 96 1006.5
20260509061707 11 215 0.0 0.0 0.00 0.00 0.00 95 1006.5
20260509061204 11 216 3.2 3.2 0.00 0.00 0.00 95 1006.0
20260509060701 11 231 3.2 3.2 0.00 0.00 0.00 95 1006.0
20260509060157 11 206 1.6 1.6 0.00 0.00 0.00 95 1006.5
20260509055654 11 194 4.8 4.8 0.00 0.00 0.00 94 1006.5
20260509055149 11 214 3.2 3.2 0.00 0.00 0.00 94 1006.5
20260509054646 11 215 1.6 1.6 0.00 0.00 0.00 94 1006.5
20260509054144 11 224 1.6 3.2 0.00 0.00 0.00 94 1006.8
20260509053642 11 192 1.6 3.2 0.00 0.00 0.00 94 1006.5
20260509053138 11 177 4.8 4.8 0.00 0.00 0.00 93 1006.5
20260509052636 11 221 3.2 3.2 0.00 0.00 0.00 93 1006.5
20260509052134 11 222 1.6 1.6 0.00 0.00 0.00 93 1006.5
20260509051631 11 219 3.2 3.2 0.00 0.00 0.00 93 1006.8
20260509051128 11 201 1.6 1.6 0.00 0.00 0.00 93 1006.5
20260509050626 11 202 1.6 3.2 0.00 0.00 0.00 93 1006.5
20260509050122 12 197 1.6 3.2 0.00 0.23 0.23 92 1006.5
20260509045620 12 181 8.0 11.3 0.00 0.23 0.23 92 1006.5
20260509045116 12 202 4.8 4.8 0.00 0.23 0.23 92 1006.5
20260509044613 12 205 3.2 3.2 0.00 0.23 0.23 92 1006.8
20260509044110 12 237 3.2 4.8 0.00 0.23 0.23 92 1006.8
20260509043607 12 198 3.2 4.8 0.00 0.23 0.23 92 1006.8
20260509043102 12 218 3.2 3.2 0.00 0.23 0.23 92 1006.8
20260509042559 12 208 3.2 4.8 0.00 0.23 0.23 92 1007.1
20260509042055 12 203 1.6 3.2 0.00 0.23 0.23 92 1006.8
20260509041552 12 241 1.6 1.6 0.00 0.23 0.23 92 1006.8
20260509041050 12 226 3.2 4.8 0.00 0.23 0.23 92 1006.8
20260509040548 12 208 1.6 1.6 0.00 0.23 0.23 91 1007.1
20260509040044 12 243 1.6 1.6 0.00 0.23 0.23 91 1007.1
20260509035541 12 205 3.2 3.2 0.00 0.23 0.23 91 1007.1
20260509035038 12 186 1.6 1.6 0.00 0.23 0.23 91 1006.8
20260509034536 12 239 4.8 8.0 0.00 0.23 0.23 90 1007.1
20260509034033 12 190 3.2 3.2 0.00 0.23 0.23 90 1006.8
20260509033530 13 223 1.6 3.2 0.00 0.23 0.23 89 1007.1
20260509033027 13 209 6.4 9.7 0.00 0.23 0.23 89 1007.1
20260509032524 13 235 3.2 3.2 0.00 0.23 0.23 89 1007.1
20260509032021 13 235 6.4 9.7 0.00 0.23 0.23 89 1007.1
20260509031519 13 165 6.4 8.0 0.00 0.23 0.23 88 1007.5
20260509031016 13 240 1.6 3.2 0.00 0.23 0.23 88 1007.1
20260509030514 13 208 3.2 4.8 0.00 0.23 0.23 87 1007.5
20260509030010 13 182 0.0 1.6 0.00 0.23 0.23 87 1007.5
20260509025506 13 258 4.8 4.8 0.00 0.23 0.23 86 1007.5
20260509025002 13 236 4.8 4.8 0.00 0.23 0.23 86 1007.1
20260509024458 13 192 1.6 1.6 0.00 0.23 0.23 86 1007.5
20260509023955 13 224 4.8 4.8 0.00 0.23 0.23 86 1007.1
20260509023452 13 190 3.2 3.2 0.00 0.23 0.23 85 1007.5
20260509022949 13 239 3.2 4.8 0.00 0.23 0.23 85 1007.5
20260509022446 14 200 9.7 11.3 0.00 0.23 0.23 85 1007.1
20260509021943 14 230 3.2 3.2 0.00 0.23 0.23 84 1007.5
20260509021440 14 209 3.2 3.2 0.00 0.23 0.23 84 1007.1
20260509020937 14 193 6.4 9.7 0.00 0.23 0.23 83 1007.1
20260509020436 14 183 3.2 4.8 0.00 0.23 0.23 82 1006.8
20260509015932 14 183 4.8 9.7 0.00 0.23 0.23 81 1007.1
20260509015431 15 182 6.4 9.7 0.00 0.23 0.23 80 1006.8
20260509014927 15 170 8.0 9.7 0.00 0.23 0.23 79 1006.8
20260509014424 15 195 4.8 8.0 0.00 0.23 0.23 79 1006.8
20260509013920 15 230 3.2 4.8 0.00 0.23 0.23 78 1006.8
20260509013417 15 156 6.4 9.7 0.00 0.23 0.23 77 1007.1
20260509012913 15 227 3.2 3.2 0.00 0.23 0.23 77 1007.1
20260509012410 15 218 3.2 4.8 0.00 0.23 0.23 76 1007.1
20260509011907 15 263 3.2 4.8 0.00 0.23 0.23 75 1006.8
20260509011404 15 228 1.6 1.6 0.00 0.23 0.23 74 1007.1
20260509010902 15 196 6.4 8.0 0.00 0.23 0.23 74 1006.8
20260509010359 15 245 0.0 1.6 0.00 0.23 0.23 73 1007.1
20260509005856 15 223 3.2 4.8 0.00 0.23 0.23 73 1006.8
20260509005355 15 263 4.8 9.7 0.00 0.23 0.23 73 1006.8
20260509004854 15 235 8.0 12.9 0.00 0.23 0.23 74 1007.1
20260509004351 16 213 6.4 9.7 0.00 0.23 0.23 75 1006.8
20260509003849 16 243 3.2 3.2 0.00 0.23 0.23 75 1007.1
20260509003346 16 226 1.6 3.2 0.00 0.23 0.23 75 1006.8
20260509002843 16 196 6.4 8.0 0.00 0.23 0.23 74 1007.1
20260509002341 16 229 6.4 8.0 0.00 0.23 0.23 74 1006.8
20260509001838 16 240 9.7 11.3 0.00 0.23 0.23 73 1006.8
20260509001334 16 249 9.7 12.9 0.00 0.23 0.23 72 1006.8
20260509000832 17 270 9.7 12.9 0.00 0.23 0.23 71 1006.5
20260509000330 16 204 6.4 8.0 0.00 0.23 0.23 71 1006.5
20260508235825 16 237 6.4 9.7 0.00 0.23 0.23 71 1006.5
20260508235323 16 257 12.9 20.9 0.00 0.23 0.23 71 1006.8
20260508234820 16 179 8.0 9.7 0.00 0.23 0.23 71 1006.8
20260508234316 17 216 11.3 16.1 0.00 0.23 0.23 69 1006.5
20260508233815 17 259 11.3 16.1 0.00 0.23 0.23 68 1006.8
20260508233314 17 196 17.7 22.5 0.00 0.23 0.23 68 1006.8
20260508232810 17 199 4.8 8.0 0.00 0.23 0.23 68 1006.8
20260508232307 18 208 4.8 8.0 0.00 0.23 0.23 65 1007.1
20260508231805 18 185 8.0 9.7 0.00 0.23 0.23 63 1006.5
20260508231301 18 201 4.8 8.0 0.00 0.23 0.23 62 1006.8
20260508230758 18 266 11.3 16.1 0.00 0.23 0.23 62 1006.8
20260508230254 18 236 4.8 4.8 0.00 0.23 0.23 62 1006.8
20260508225752 18 223 11.3 14.5 0.00 0.23 0.23 62 1006.8
20260508225248 18 227 8.0 12.9 0.00 0.23 0.23 63 1006.8
20260508224746 18 244 11.3 14.5 0.00 0.23 0.23 63 1006.8
20260508224243 18 228 9.7 12.9 0.00 0.23 0.23 62 1006.8
20260508223741 18 230 14.5 17.7 0.00 0.23 0.23 62 1006.8
20260508223238 18 181 4.8 4.8 0.00 0.23 0.23 63 1006.8
20260508222735 18 272 6.4 12.9 0.00 0.23 0.23 64 1007.1
20260508222233 18 280 11.3 14.5 0.00 0.23 0.23 63 1006.8
20260508221729 18 245 6.4 8.0 0.00 0.23 0.23 63 1007.1
20260508221225 18 236 12.9 16.1 0.00 0.23 0.23 63 1006.8
20260508220721 18 266 4.8 4.8 0.00 0.23 0.23 65 1006.8
20260508220218 18 219 3.2 4.8 0.00 0.23 0.23 65 1006.8
20260508215714 18 259 11.3 12.9 0.00 0.23 0.23 66 1007.1
20260508215211 18 256 3.2 3.2 0.00 0.23 0.23 65 1006.8
20260508214708 18 228 6.4 8.0 0.00 0.23 0.23 66 1007.5
20260508214205 17 246 8.0 9.7 0.00 0.23 0.23 66 1007.1
20260508213702 18 263 9.7 12.9 0.00 0.23 0.23 67 1007.1
20260508213158 17 229 19.3 25.7 0.00 0.23 0.23 67 1007.5
20260508212655 18 232 11.3 14.5 0.00 0.23 0.23 65 1007.1
20260508212151 18 264 6.4 9.7 0.00 0.23 0.23 67 1007.1
20260508211652 17 267 6.4 8.0 0.00 0.23 0.23 68 1007.1
20260508211148 17 172 11.3 17.7 0.00 0.23 0.23 68 1007.1
20260508210645 17 169 9.7 11.3 0.00 0.23 0.23 69 1007.5
20260508210143 17 261 11.3 12.9 0.00 0.23 0.23 69 1007.1
20260508205639 17 260 6.4 8.0 0.00 0.23 0.23 70 1007.5
20260508205136 17 187 14.5 16.1 0.00 0.23 0.23 70 1007.5
20260508204632 17 269 6.4 9.7 0.00 0.23 0.23 70 1007.5
20260508204128 17 217 6.4 8.0 0.00 0.23 0.23 69 1007.1
20260508203625 17 219 8.0 9.7 0.00 0.23 0.23 71 1007.5
20260508203121 17 262 14.5 17.7 0.00 0.23 0.23 70 1007.5
20260508202617 17 236 8.0 11.3 0.00 0.23 0.23 70 1007.5
20260508202115 17 203 6.4 8.0 0.00 0.23 0.23 70 1007.5
20260508201611 17 284 8.0 9.7 0.00 0.23 0.23 69 1007.8
20260508201108 17 248 8.0 11.3 0.00 0.23 0.23 68 1007.8
20260508200605 17 171 3.2 9.7 0.00 0.23 0.23 69 1007.8
20260508200101 17 223 8.0 12.9 0.00 0.23 0.23 68 1008.2
20260508195557 17 236 8.0 11.3 0.00 0.23 0.23 69 1008.2
20260508195054 17 231 9.7 14.5 0.00 0.23 0.23 69 1007.8
20260508194550 17 262 6.4 9.7 0.00 0.23 0.23 68 1008.2
20260508194048 17 263 9.7 14.5 0.00 0.23 0.23 67 1008.2
20260508193544 17 275 6.4 11.3 0.00 0.23 0.23 67 1008.2
20260508193041 18 241 11.3 16.1 0.00 0.23 0.23 65 1008.2
20260508192538 17 234 9.7 11.3 0.00 0.23 0.23 67 1007.8
20260508192035 17 246 6.4 8.0 0.00 0.23 0.23 66 1008.2
20260508191531 17 210 4.8 8.0 0.00 0.23 0.23 66 1008.2
20260508191028 17 268 6.4 9.7 0.00 0.23 0.23 66 1008.2
20260508190526 17 263 4.8 8.0 0.00 0.23 0.23 66 1008.2
20260508190021 17 269 9.7 11.3 0.00 0.23 0.23 68 1008.2
20260508185519 17 279 11.3 14.5 0.00 0.23 0.23 67 1008.5
20260508185017 17 258 1.6 3.2 0.00 0.23 0.23 67 1008.2
20260508184514 17 257 4.8 4.8 0.00 0.23 0.23 68 1008.2
20260508184011 17 214 9.7 12.9 0.00 0.23 0.23 68 1008.5
20260508183507 17 225 6.4 9.7 0.00 0.23 0.23 70 1008.5
20260508183002 16 165 11.3 16.1 0.00 0.23 0.23 69 1008.8
20260508182500 16 275 8.0 14.5 0.00 0.23 0.23 68 1008.5
20260508181955 16 270 9.7 11.3 0.00 0.23 0.23 68 1008.8
20260508181451 17 269 3.2 3.2 0.00 0.23 0.23 67 1008.8
20260508180949 17 188 4.8 4.8 0.00 0.23 0.23 67 1008.8
20260508180446 17 305 9.7 11.3 0.00 0.23 0.23 66 1008.8
20260508175942 17 259 6.4 8.0 0.00 0.23 0.23 66 1008.8
20260508175438 16 262 3.2 3.2 0.00 0.23 0.23 67 1009.2
20260508174937 16 201 3.2 3.2 0.00 0.23 0.23 67 1008.8
20260508174434 16 236 3.2 4.8 0.00 0.23 0.23 67 1009.2
20260508173930 16 252 4.8 4.8 0.00 0.23 0.23 67 1009.2
20260508173428 16 285 4.8 4.8 0.00 0.23 0.23 66 1009.2
20260508172923 17 255 4.8 4.8 0.00 0.23 0.23 65 1009.2
20260508172421 17 175 3.2 3.2 0.00 0.23 0.23 65 1009.2
20260508171917 17 234 6.4 8.0 0.00 0.23 0.23 66 1009.5
20260508171413 17 219 0.0 1.6 0.00 0.23 0.23 66 1009.5
20260508170910 17 209 4.8 9.7 0.00 0.23 0.23 65 1009.5
20260508170408 17 209 4.8 4.8 0.00 0.23 0.23 67 1009.9
20260508165904 17 262 12.9 22.5 0.00 0.23 0.23 67 1009.9
20260508165402 17 241 8.0 9.7 0.00 0.23 0.23 65 1009.9
20260508164857 17 164 3.2 3.2 0.00 0.23 0.23 66 1009.9
20260508164355 17 222 1.6 3.2 0.00 0.23 0.23 66 1010.2
20260508163852 17 188 3.2 3.2 0.00 0.23 0.23 68 1009.9
20260508163350 17 187 1.6 1.6 0.00 0.23 0.23 69 1010.2
20260508162845 17 217 9.7 11.3 0.00 0.23 0.23 68 1010.2
20260508162343 17 189 3.2 4.8 0.00 0.23 0.23 66 1009.9
20260508161840 16 191 3.2 3.2 0.00 0.23 0.23 68 1010.2
20260508161337 17 278 8.0 9.7 0.00 0.23 0.23 69 1010.2
20260508160834 17 166 1.6 1.6 0.00 0.23 0.23 70 1010.2
20260508160333 16 226 3.2 3.2 0.00 0.23 0.23 72 1010.2
20260508155829 16 203 4.8 4.8 0.00 0.23 0.23 72 1010.5
20260508155326 16 107 6.4 8.0 0.00 0.23 0.23 73 1010.5
20260508154823 16 252 3.2 3.2 0.00 0.23 0.23 72 1010.2
20260508154321 16 181 14.5 16.1 0.00 0.23 0.23 73 1010.5
20260508153817 15 160 4.8 4.8 0.00 0.23 0.23 74 1010.9
20260508153314 15 187 6.4 9.7 0.00 0.23 0.23 75 1010.9
20260508152810 15 169 8.0 9.7 0.00 0.23 0.23 76 1010.9
20260508152307 15 154 4.8 8.0 0.00 0.23 0.23 76 1010.9
20260508151803 15 152 4.8 8.0 0.00 0.23 0.23 75 1010.9
20260508151300 15 170 4.8 4.8 0.00 0.23 0.23 75 1010.9
20260508150756 15 181 4.8 8.0 0.00 0.23 0.23 74 1010.9
20260508150253 15 193 8.0 9.7 0.00 0.23 0.23 73 1010.9
20260508145749 15 202 8.0 9.7 0.00 0.23 0.23 72 1010.9
20260508145245 15 157 4.8 8.0 0.00 0.23 0.23 73 1010.9
20260508144742 15 162 1.6 3.2 0.00 0.23 0.23 76 1010.9
20260508144241 15 164 3.2 3.2 0.00 0.23 0.23 78 1010.9
20260508143738 14 202 3.2 4.8 0.00 0.23 0.23 78 1010.9
20260508143235 14 160 3.2 4.8 0.00 0.23 0.23 79 1010.9
20260508142731 14 186 8.0 9.7 0.00 0.23 0.23 79 1010.9
20260508142228 13 196 8.0 11.3 0.00 0.23 0.23 81 1010.9
20260508141724 13 141 3.2 3.2 0.00 0.23 0.23 85 1010.9
20260508141222 12 170 6.4 8.0 0.00 0.23 0.23 89 1010.9
20260508140719 12 167 8.0 9.7 0.00 0.23 0.23 94 1010.9
20260508140216 11 170 4.8 8.0 0.00 0.23 0.23 97 1010.9
20260508135712 11 160 8.0 11.3 0.00 0.23 0.23 98 1010.9
20260508135207 11 160 11.3 14.5 0.00 0.23 0.23 99 1010.9
20260508134704 11 162 3.2 3.2 0.00 0.23 0.23 99 1010.9
20260508134201 11 195 8.0 9.7 0.00 0.23 0.23 99 1010.9
20260508133658 10 177 8.0 9.7 0.00 0.23 0.23 99 1010.9
20260508133155 10 185 6.4 9.7 0.00 0.23 0.23 99 1010.9
20260508132653 10 165 6.4 8.0 0.00 0.23 0.23 99 1011.2
20260508132150 10 168 6.4 8.0 0.00 0.23 0.23 99 1010.9
20260508131645 10 174 9.7 11.3 0.00 0.23 0.23 99 1011.2
20260508131142 11 191 11.3 14.5 0.00 0.23 0.23 99 1010.9
20260508130638 11 179 12.9 17.7 0.00 0.23 0.23 99 1011.2
20260508130136 11 180 6.4 8.0 0.00 0.23 0.23 99 1010.9
20260508125631 10 171 6.4 8.0 0.00 0.23 0.23 99 1011.2
20260508125129 10 180 9.7 11.3 0.00 0.23 0.23 99 1010.9
20260508124627 10 167 9.7 11.3 0.00 0.23 0.23 99 1011.2
20260508124123 10 187 11.3 14.5 0.00 0.23 0.23 99 1011.2
20260508123622 10 182 4.8 8.0 0.00 0.23 0.23 99 1011.2
20260508123119 10 181 6.4 8.0 0.00 0.23 0.23 99 1011.7
20260508122615 10 211 4.8 4.8 0.00 0.23 0.23 99 1011.7
20260508122112 10 244 4.8 4.8 0.00 0.23 0.23 99 1011.2
20260508121611 10 244 1.6 1.6 0.00 0.23 0.23 99 1011.7
20260508121108 10 244 1.6 1.6 0.00 0.23 0.23 99 1011.2
20260508120605 10 244 3.2 3.2 0.00 0.23 0.23 99 1011.7
20260508120104 10 244 1.6 1.6 0.00 0.23 0.23 99 1011.7
20260508115600 10 244 3.2 3.2 0.10 0.20 0.20 99 1011.2
20260508115057 10 244 1.6 1.6 0.10 0.20 0.20 99 1011.7
20260508114554 10 244 0.0 1.6 0.10 0.20 0.20 99 1011.2
20260508114050 10 244 0.0 0.0 0.08 0.18 0.18 99 1011.7
20260508113548 10 244 0.0 0.0 0.05 0.15 0.15 99 1011.2
20260508113046 9 244 0.0 0.0 0.05 0.15 0.15 99 1010.9